BEIDOU-3 M12 (C26) (43602 NORAD) Tracking and Keplerian Element Data

This shows tracking and keplerian element data for the satellite.

Feedback or suggestion? Click here.




ElementValue
Catalog43602
NameBEIDOU-3 M12 (C26)
Epoch Orbit4382
Epoch Day34.07426219
Epoch Year2025
RAAN197.9658
Inclination54.2037
Eccentricity0.0008455
Argument of Perigee37.2254
Mean Anonmoly322.8019
Mean Motion1.86227638
Decay Rate9.1E-07
L11 43602U 18067A 25034.07426219 .00000091 00000+0 00000+0 0 9990
L22 43602 54.2037 197.9658 0008455 37.2254 322.8019 1.86227638 43823



Live tracking and technical data element details for BEIDOU-3 M12 (C26) (NORAD 43602). BEIDOU-3 M12 (C26) can be tracked NOW for your location showing map with azimuth and elevation plus other details from your city location.







IsCatalogInMostPopularTable: catalog: 43602, numindb: 472
Update: records affected: 1



GetName: 43602 BEIDOU-3 M12 (C26)

Hit Count: updated at: Thu, 15 May 2025 10:32:11 GMT